カタログに戻る

CZ-6A DEB

運用中PO
NORAD 60711·DEBRIS·🇨🇳 China

打ち上げ Aug 6, 2024 から Taiyuan Satellite Launch Center

Loading…

次のパス (今後24時間)

TLE

最新Source: Space-Track

元期: Sep 14, 2026, 10:14 UTC

1 60711U 24140DQ  26257.42665369  .00000809  00000-0  25026-3 0  9994
2 60711  88.8456 247.7932 0064649  56.8119 303.9259 14.39121996109702

AllMySatでCZ-6A DEBをリアルタイム追跡

Download on the App Store